Location: Unspecified
(0.0000°N, 0.0000°E)
Time: 01:21:51
(UTC+01:00)

SJ-6B - Visible Passes

Search period start: 11 February 2016 00:00
Search period end: 21 February 2016 00:00
Orbit: 513 x 587 km, 97.8° (Epoch: 09 February)

Date Brightness Start Highest point End Pass type
(mag) Time Alt. Az. Time Alt. Az. Time Alt. Az.
17 Feb 6.5 20:41:19 10° WSW 20:41:59 10° WSW 20:42:38 10° W visible
18 Feb 6.3 20:36:07 10° SW 20:37:42 12° WSW 20:39:17 10° WNW visible
19 Feb 6.1 20:31:19 10° SW 20:33:25 14° WSW 20:35:32 10° WNW visible
20 Feb 5.9 20:26:38 10° SW 20:29:08 17° WSW 20:31:38 10° WNW visible
